KE2BQW Weather Reports


Display with metric or nautical units.
time (UTC)temp
F
wind
direction
speed
MPH
gust
MPH
rain 1hr
in
rain 24hr
in
rain mn
in
humidity
%
barometer
mb
20260505022516 60 0.0 0.0 0.00 0.00 0.00 50 1003.0
20260505021516 60 0.0 0.0 0.00 0.00 0.00 49 1003.1
20260505020515 61 0.0 0.0 0.00 0.00 0.00 48 1003.3
20260505015517 61 0.0 0.0 0.00 0.00 0.00 47 1003.4
20260505014516 62 0.0 0.0 0.00 0.00 0.00 46 1003.4
20260505013516 62 0.0 0.0 0.00 0.00 0.00 45 1003.4
20260505012516 63 0.0 0.0 0.00 0.00 0.00 43 1003.3
20260505011516 64 0.0 0.0 0.00 0.00 0.00 42 1003.1
20260505010515 65 0.0 0.0 0.00 0.00 0.00 41 1003.0
20260505005517 66 0.0 0.0 0.00 0.00 0.00 40 1003.0
20260505004517 67 0.0 0.0 0.00 0.00 0.00 37 1002.9
20260505003515 68 0.0 0.0 0.00 0.00 0.00 36 1002.9
20260505002517 69 0.0 0.0 0.00 0.00 0.00 33 1003.0
20260505001538 70 0.0 0.0 0.00 0.00 0.00 33 1003.0
20260505000516 71 0.0 0.0 0.00 0.00 0.00 32 1002.9
20260504235515 72 0.0 0.0 0.00 0.00 0.00 31 1002.8
20260504234516 72 0.0 0.0 0.00 0.00 0.00 30 1002.8
20260504233537 73 0.0 0.0 0.00 0.00 0.00 29 1002.7
20260504232537 73 0.0 0.0 0.00 0.00 0.00 28 1002.7
20260504231516 74 0.0 0.0 0.00 0.00 0.00 28 1002.6
20260504230516 74 0.0 0.0 0.00 0.00 0.00 28 1002.6
20260504225516 74 0.0 0.0 0.00 0.00 0.00 27 1002.6
20260504224517 74 0.0 0.0 0.00 0.00 0.00 27 1002.5
20260504223516 75 0.0 0.0 0.00 0.00 0.00 27 1002.5
20260504222518 75 0.0 0.0 0.00 0.00 0.00 27 1002.4
20260504221515 75 0.0 0.0 0.00 0.00 0.00 27 1002.4
20260504220516 75 0.0 0.0 0.00 0.00 0.00 27 1002.5
20260504215516 76 0.0 0.0 0.00 0.00 0.00 27 1002.6
20260504214557 76 0.0 0.0 0.00 0.00 0.00 27 1002.7
20260504213516 76 0.0 0.0 0.00 0.00 0.00 27 1002.7
20260504212517 76 0.0 0.0 0.00 0.00 0.00 27 1002.8
20260504211516 75 0.0 0.0 0.00 0.00 0.00 27 1002.8
20260504210516 75 0.0 0.0 0.00 0.00 0.00 27 1002.9
20260504205516 75 0.0 0.0 0.00 0.00 0.00 29 1002.9
20260504204516 74 0.0 0.0 0.00 0.00 0.00 29 1003.1
20260504203516 75 0.0 0.0 0.00 0.00 0.00 28 1003.2
20260504202517 75 0.0 0.0 0.00 0.00 0.00 28 1003.3
20260504201517 75 0.0 0.0 0.00 0.00 0.00 28 1003.3
20260504200517 75 0.0 0.0 0.00 0.00 0.00 29 1003.5
20260504195517 75 0.0 0.0 0.00 0.00 0.00 30 1003.6
20260504194515 74 0.0 0.0 0.00 0.00 0.00 30 1003.8
20260504193517 74 0.0 0.0 0.00 0.00 0.00 30 1004.0
20260504192516 74 0.0 0.0 0.00 0.00 0.00 30 1004.1
20260504191515 74 0.0 0.0 0.00 0.00 0.00 31 1004.2
20260504190516 73 0.0 0.0 0.00 0.00 0.00 31 1004.4
20260504185516 73 0.0 0.0 0.00 0.00 0.00 33 1004.5
20260504184516 73 0.0 0.0 0.00 0.00 0.00 32 1004.6
20260504183516 73 0.0 0.0 0.00 0.00 0.00 33 1004.8
20260504182516 72 0.0 0.0 0.00 0.00 0.00 34 1004.9
20260504181517 72 0.0 0.0 0.00 0.00 0.00 34 1005.0
20260504180536 72 0.0 0.0 0.00 0.00 0.00 35 1005.1
20260504175516 71 0.0 0.0 0.00 0.00 0.00 35 1005.2
20260504174515 71 0.0 0.0 0.00 0.00 0.00 35 1005.2
20260504173517 72 0.0 0.0 0.00 0.00 0.00 36 1005.2
20260504172516 71 0.0 0.0 0.00 0.00 0.00 37 1005.3
20260504171515 70 0.0 0.0 0.00 0.00 0.00 37 1005.4
20260504170515 70 0.0 0.0 0.00 0.00 0.00 38 1005.5
20260504150517 64 0.0 0.0 0.00 0.00 0.00 41 1006.4
20260504140517 62 0.0 0.0 0.00 0.00 0.00 43 1006.5
20260504130517 57 0.0 0.0 0.00 0.00 0.00 45 1007.4
20260504110517 52 0.0 0.0 0.00 0.00 0.00 47 1008.1
20260504100517 52 0.0 0.0 0.00 0.00 0.00 47 1007.8
20260504081515 51 0.0 0.0 0.00 0.00 0.00 50 1008.6
20260504080516 51 0.0 0.0 0.00 0.00 0.00 51 1008.7
20260504050516 53 0.0 0.0 0.00 0.00 0.00 47 1009.6
20260504045517 53 0.0 0.0 0.00 0.00 0.00 46 1009.7
20260504044522 53 0.0 0.0 0.00 0.00 0.00 45 1009.7
20260504043516 54 0.0 0.0 0.00 0.00 0.00 44 1009.7
20260504042516 55 0.0 0.0 0.00 0.00 0.00 43 1009.6
20260504041515 55 0.0 0.0 0.00 0.00 0.00 43 1009.6
20260504040537 55 0.0 0.0 0.00 0.00 0.00 43 1009.5
20260504035536 55 0.0 0.0 0.00 0.00 0.00 43 1009.5
20260504034535 55 0.0 0.0 0.00 0.00 0.00 43 1009.5
20260504033557 55 0.0 0.0 0.00 0.00 0.00 43 1009.5
20260504032516 55 0.0 0.0 0.00 0.00 0.00 43 1009.5
20260504031515 55 0.0 0.0 0.00 0.00 0.00 44 1009.6
20260504030516 55 0.0 0.0 0.00 0.00 0.00 44 1009.6
20260504025516 55 0.0 0.0 0.00 0.00 0.00 45 1009.6
20260504024516 55 0.0 0.0 0.00 0.00 0.00 46 1009.7
20260504023515 55 0.0 0.0 0.00 0.00 0.00 46 1009.8